Find Starlink 32035

NORAD ID: 60107 Int'l Des: 2024-117 Owner: SPXS Country: US Constellation: starlink operational
LEOCIRCULAR

現在のビュー

3D地球を読み込み中...

About Starlink 32035

Starlink 32035 (NORAD 60107) is a starlink constellation satellite (v2 mini) launched Jun 23, 2024 by SPXS of US. It operates in LEO, CIRCULAR orbit with a mass of 730.00 kg.

Starlink 32035について

説明を読み込み中...

次回通過

Passes for default location (London). Set your location on the main map for personalized predictions.

高度履歴

Loading altitude history...

軌道要素

1 60107U 24117S 26170.68752276 -.00000434 00000-0 -25112-5 0 9997
2 60107 53.1609 283.2953 0001280 88.3064 271.8083 15.30201320112507
Epoch: Jun 19, 2026 • Age: 43 hours

現在のステータス

高度 476.0 km
速度 7.63 km/s
衛星直下点 0.34°N, 10.94°E
打ち上げ日 Jun 23, 2024
運用期間 1.9 years
タイプ internet

技術仕様

分類 Payload
質量 730.00 kg
乾燥質量 700.00 kg
総質量 730.00 kg
長さ 0.30 m
直径 4.10 m
スパン 29.00 m
形状 Box + pan
製造者 SPXS
バスタイプ Starlink V2M
フェーズステータス In Orbit
所有者/国 SPXS/US

Most Searched